Weather in Kolezhma

Russia / Republic of Karelia     64°14′14″N   35°52′19″E
temp.,
°C
wind,
m/s
gust,
m/s
humid.,
%
clouds,
%
prec.,
mm/h
press.,
hPa
HPBL,
m
5 august, thu
thu500:00+9w61290100 0.6 10101178
03:00+9w51293100 1.4 1012809
06:00+10w41091100 0.2 1014477
09:00+12w3879100 0.2 1015428
12:00+15wnw3558100 0.0 1017921
15:00+17nw2346100 0.0 10181180
18:00+16e2154100 0.0 1018472
21:00+11sse2573100 0.0 101990
6 august, fri
fri600:00+10s2374100 0.0 102048
03:00+10s2276100 0.0 102034
06:00+11s227288 0.0 102151
09:00+17se22506 0.0 1021472
12:00+19e224212 0.0 10211913
15:00+19e334224 0.0 10201509
18:00+18e33420 0.0 1021695
21:00+12ese22660 0.0 102122
7 august, sat
sat700:00+11e228210 0.0 102233
03:00+10ese229082 0.0 102235
06:00+11ese24795 0.0 1023101
09:00+17ese34525 0.0 1023470
12:00+19e46424 0.0 10221209
15:00+20e46390 0.0 10221497
18:00+17ne47544 0.0 1021346
21:00+14e4136925 0.0 1021349
8 august, sun
sun800:00+12ese4127814 0.0 1021260
03:00+11e411835 0.0 1021238
06:00+12e4127582 0.0 1021348
09:00+15e5125578 0.0 1020558
12:00+18ese61045100 0.0 10201031
15:00+19e5942100 0.0 10191382
18:00+18e4947100 0.0 1018806
21:00+13ene3871100 0.0 1019147
9 august, mon
mon900:00+11ese2383100 0.0 101945
03:00+11e2382100 0.0 101953
06:00+12e2879100 0.0 1019215
09:00+16e3760100 0.0 1019451
12:00+19e474996 0.0 1019825
15:00+21e464287 0.0 10191321
18:00+19ne35505 0.0 1019452
21:00+14e310695 0.0 1018214